This is the latest recevied weather packets stored in our database for station/object N8TWM-13. If no packets are shown the sender has not sent any weather packets the latest 10 day(s).
| Time | Temp. | Humidity | Pressure | Rain* | Wind** | Luminosity | Snow |
|---|---|---|---|---|---|---|---|
| 1778022955 | 13.89° C | 95% | 1008.3 hPa | 6.6 mm | - | 0 W/m² | - |
| 1778022654 | 14.44° C | 95% | 1007.9 hPa | 1.78 mm | - | 4 W/m² | - |
| 1778022351 | 14.44° C | 95% | 1007.7 hPa | 1.27 mm | - | 10 W/m² | - |
| 1778022047 | 14.44° C | 94% | 1007.8 hPa | 1.27 mm | - | 24 W/m² | - |
| 1778021744 | 14.44° C | 94% | 1007.8 hPa | 1.78 mm | - | 29 W/m² | - |
| 1778021440 | 14.44° C | 94% | 1007.5 hPa | 3.05 mm | - | 13 W/m² | - |
| 1778021137 | 14.44° C | 94% | 1007.8 hPa | 3.05 mm | - | 19 W/m² | - |
| 1778020834 | 14.44° C | 94% | 1008 hPa | 3.05 mm | - | 19 W/m² | - |
| 1778020531 | 14.44° C | 94% | 1008.1 hPa | 4.83 mm | - | 20 W/m² | - |
| 1778020227 | 14.44° C | 94% | 1008.5 hPa | 6.1 mm | - | 18 W/m² | - |
| 1778019924 | 14.44° C | 94% | 1008.3 hPa | 6.1 mm | - | 27 W/m² | - |
| 1778019620 | 14.44° C | 93% | 1008 hPa | 6.1 mm | - | 27 W/m² | - |
| 1778019317 | 14.44° C | 93% | 1007.9 hPa | 6.1 mm | - | 23 W/m² | - |
| 1778019014 | 14.44° C | 93% | 1008.1 hPa | 6.1 mm | - | 20 W/m² | - |
| 1778018711 | 14.44° C | 93% | 1008.1 hPa | 10.67 mm | - | 16 W/m² | - |
| 1778018409 | 14.44° C | 93% | 1008.4 hPa | 30.73 mm | - | 16 W/m² | - |
| 1778018107 | 14.44° C | 92% | 1008.3 hPa | 35.31 mm | - | 18 W/m² | - |
| 1778017804 | 15° C | 92% | 1008.1 hPa | 18.54 mm | - | 8 W/m² | - |
| 1778017502 | 15° C | 92% | 1007.9 hPa | 3.05 mm | - | 4 W/m² | - |
| 1778017199 | 15° C | 92% | 1007.7 hPa | 0 mm | - | 17 W/m² | - |
| 1778016897 | 15° C | 91% | 1007.4 hPa | 0 mm | - | 39 W/m² | - |
| 1778016593 | 15.56° C | 91% | 1007.3 hPa | 0 mm | - | 60 W/m² | - |
| 1778016289 | 15.56° C | 91% | 1007.7 hPa | 0 mm | - | 40 W/m² | - |
| 1778015986 | 15.56° C | 91% | 1007.4 hPa | 0 mm | - | 83 W/m² | - |
| 1778015684 | 15° C | 91% | 1007.5 hPa | 0 mm | - | 80 W/m² | - |
* Rain latest hour (hover to see other rain measurements)
** Current wind speed in m/s (hover to see current wind gust speed)